Location: Filler
(36.7551°N, 30.4456°E)
Time: 02:59:30
(UTC+00:00)

FENGYUN 3A - Visible Passes

Search period start: 20 July 2025 00:00
Search period end: 30 July 2025 00:00
Orbit: 821 x 833 km, 98.6° (Epoch: 19 July)

Date Brightness Start Highest point End Pass type
(mag) Time Alt. Az. Time Alt. Az. Time Alt. Az.
20 Jul 3.6 00:15:36 10° N 00:20:59 68° WNW 00:21:45 59° WSW visible
20 Jul 3.5 23:56:52 10° NNE 00:02:19 82° ESE 00:02:46 74° SSE visible
21 Jul 5.7 01:39:42 10° NW 01:41:47 12° WNW 01:43:52 10° W visible
21 Jul 4.0 23:38:18 10° NNE 23:43:36 54° E 23:43:47 54° ESE visible
22 Jul 5.3 01:19:45 10° NNW 01:23:21 18° WNW 01:25:17 15° W visible
22 Jul 4.7 23:19:52 10° NNE 23:24:47 36° E 23:24:47 36° E visible
23 Jul 4.8 01:00:24 10° NNW 01:04:51 27° WNW 01:06:17 24° W visible
23 Jul 5.3 23:01:41 10° NE 23:05:48 24° E 23:05:48 24° E visible
24 Jul 4.3 00:41:18 10° N 00:46:18 39° WNW 00:47:18 36° W visible
24 Jul 5.8 22:43:56 10° NE 22:46:48 16° E 22:46:48 16° E visible
25 Jul 3.7 00:22:23 10° N 00:27:42 58° WNW 00:28:18 55° W visible
26 Jul 3.5 00:03:36 10° NNE 00:09:02 86° WNW 00:09:19 81° SW visible
26 Jul 5.8 01:47:30 10° NW 01:48:25 10° WNW 01:49:21 10° WNW visible
26 Jul 3.8 23:44:57 10° NNE 23:50:19 63° E 23:50:19 63° E visible
27 Jul 5.4 01:26:50 10° NNW 01:30:00 16° WNW 01:31:49 14° W visible
27 Jul 4.5 23:26:29 10° NNE 23:31:19 41° E 23:31:19 41° E visible
28 Jul 5.0 01:07:20 10° NNW 01:11:31 23° WNW 01:12:49 21° W visible
28 Jul 5.2 23:08:12 10° NE 23:12:19 27° E 23:12:19 27° E visible
29 Jul 4.5 00:48:10 10° N 00:52:59 34° WNW 00:53:49 32° W visible
29 Jul 5.7 22:50:15 10° NE 22:53:19 18° E 22:53:19 18° E visible
